Theta_e
336 335 329 328 323 324 325 327 329 330 331 330 332 332 332 333 330 334 334 334 333 331 329 328 327 327 327 327 327 325 323 325 327 326 328 329 330 330 330 330 330 330 330
336 333 330 324 323 327 328 328 330 331 330 329 330 330 331 331 329 334 334 332 331 329 328 327 327 326 326 324 323 321 321 321 321 323 323 325 327 327 327 327 327 328 328
335 333 331 325 330 330 330 332 332 332 331 329 328 329 330 330 330 333 332 330 329 328 327 326 326 326 325 323 322 321 321 322 322 324 323 322 323 323 323 324 324 325 325
334 333 330 327 330 330 331 331 332 332 331 328 327 328 328 329 332 333 331 328 329 327 326 325 325 324 321 319 320 322 321 320 321 322 323 324 324 323 322 321 321 322 321
334 332 330 328 329 329 329 331 330 330 328 327 327 328 330 331 332 331 328 328 328 326 325 324 323 319 315 315 315 317 317 320 321 320 320 320 321 324 322 320 319 319 319
332 332 328 328 328 328 328 330 329 328 326 326 326 329 331 332 331 330 327 327 327 325 324 323 321 316 312 309 310 314 315 317 318 318 318 317 318 320 321 322 319 318 317
332 331 329 327 327 328 327 329 327 326 326 326 326 328 330 331 330 327 324 324 325 324 322 319 315 309 307 307 310 312 313 315 316 316 315 314 315 315 317 319 320 318 317
332 329 328 327 327 327 326 326 325 324 325 324 325 324 327 330 328 324 321 318 318 318 315 314 309 307 306 305 308 312 313 314 315 315 314 313 314 315 316 315 319 318 317
330 330 329 328 326 324 322 323 324 323 324 321 322 320 323 328 327 324 319 316 316 316 315 310 308 306 307 309 311 312 312 313 314 314 313 312 315 317 315 315 317 317 318
330 330 329 327 325 322 320 322 323 322 319 316 316 316 321 326 327 321 318 318 317 315 311 308 308 307 307 309 310 311 312 313 313 313 311 311 312 317 318 318 317 317 316
331 330 329 327 324 322 321 321 321 319 314 314 314 316 321 324 324 326 320 316 314 310 309 308 309 310 309 310 310 311 313 313 312 311 310 311 311 312 315 315 314 315 315
330 330 328 326 322 320 318 321 321 316 316 316 317 320 320 323 325 322 319 314 311 309 309 308 312 313 314 314 312 312 312 312 311 310 309 310 311 311 312 312 312 311 312
330 329 328 325 320 319 319 319 315 316 316 317 319 320 321 321 320 320 318 318 317 317 316 315 315 315 314 313 313 312 312 311 310 308 306 308 311 314 311 309 309 308 308
330 329 328 324 319 319 319 318 317 317 317 318 318 320 320 318 318 317 317 316 315 315 315 314 315 315 314 313 313 312 311 310 310 308 304 304 306 309 309 309 308 306 306
330 328 326 322 319 319 317 316 315 315 316 317 318 318 318 317 317 316 316 316 315 315 314 314 315 315 314 313 313 312 311 310 310 308 304 298 300 305 307 307 306 306 305
330 328 325 321 319 318 317 316 316 314 314 316 316 317 317 317 317 317 316 315 315 314 313 314 314 314 314 313 312 311 310 309 308 308 306 302 300 301 304 305 305 305 304
330 328 324 320 318 318 317 316 316 313 314 314 315 317 317 317 318 317 317 316 315 315 315 314 313 313 312 312 311 311 310 308 307 306 305 304 303 301 301 303 303 303 302
330 327 323 318 318 318 317 317 315 314 313 314 315 317 317 318 317 317 317 316 315 314 313 313 312 312 311 311 310 308 307 306 306 304 303 303 302 303 300 301 301 301 300
331 326 321 317 317 317 319 318 315 315 314 315 316 316 317 317 317 317 316 317 316 314 314 312 312 311 310 309 308 307 306 304 303 302 302 301 301 302 302 298 298 297 296
331 327 320 317 317 318 319 319 317 315 314 315 315 315 317 317 317 317 316 317 315 313 313 312 311 310 309 307 305 305 304 303 302 302 301 300 300 301 301 301 300 297 295
330 327 320 317 317 318 319 319 319 317 315 315 315 315 317 316 317 317 316 317 315 313 313 313 311 310 308 307 306 304 303 302 301 301 300 300 300 300 300 300 299 298 296
331 328 321 317 317 318 318 318 318 318 317 317 316 316 317 317 317 317 316 316 315 314 314 313 311 311 310 308 309 307 308 304 302 300 300 299 300 299 300 299 298 297 296
331 329 323 319 317 317 317 317 318 318 317 317 316 317 317 317 317 316 317 316 316 314 314 314 313 312 312 309 307 306 307 305 303 301 300 299 299 299 299 298 297 295 295
332 331 326 322 318 316 315 317 319 319 318 317 316 317 317 317 317 317 317 317 316 315 315 316 314 313 312 311 306 302 302 301 303 303 300 299 298 298 298 297 296 295 294
334 332 329 325 321 317 315 317 319 319 318 317 317 317 317 317 317 316 317 317 316 315 315 315 313 313 311 310 308 305 302 301 300 300 302 301 299 297 296 296 295 295 294
335 334 332 329 325 321 317 317 320 319 319 318 318 318 318 317 317 317 317 317 316 315 315 314 313 312 310 308 306 304 303 302 301 301 301 301 300 299 297 296 295 294 293
Wind_Speed
19 15 12 11 11 12 12 12 13 13 11 12 13 13 14 14 14 16 19 21 24 22 22 22 23 23 24 23 23 22 24 26 23 27 27 28 27 26 27 26 26 24 25
20 16 13 13 14 13 13 13 12 12 13 13 12 14 14 13 15 17 19 22 22 22 23 24 24 25 24 24 24 25 26 26 25 23 26 24 26 26 26 26 26 25 24
19 15 13 15 14 13 13 10 12 14 14 13 13 13 12 12 14 18 20 22 22 23 23 23 23 23 24 25 25 27 25 22 18 26 24 22 23 23 22 24 24 23 23
18 16 14 16 14 12 11 11 12 14 14 12 13 13 9 12 15 19 22 23 22 23 23 22 23 23 24 25 25 25 23 22 20 23 24 22 23 21 21 22 22 23 22
17 17 15 16 14 12 11 12 13 15 14 14 14 12 12 12 19 21 22 23 23 22 22 22 22 22 22 22 21 20 17 11 12 21 19 20 20 23 20 21 20 21 22
16 18 15 15 13 12 11 13 14 15 14 14 14 13 13 18 22 22 22 23 22 21 21 21 20 20 20 19 18 17 18 19 18 18 17 18 18 18 21 19 19 19 21
17 16 14 15 13 12 13 14 15 14 13 15 14 13 14 19 21 20 21 21 21 20 20 19 19 19 19 20 20 22 22 21 19 19 19 18 17 15 16 19 17 18 19
16 16 14 14 12 12 13 14 14 14 13 13 14 13 15 18 20 18 19 19 19 19 18 18 18 19 20 21 20 20 21 20 19 20 20 20 17 17 16 15 18 17 17
15 17 14 14 11 12 14 14 14 14 13 15 15 15 16 18 19 17 17 18 18 17 17 17 17 19 21 22 24 23 20 19 19 20 20 20 16 18 17 16 17 18 16
17 16 15 14 12 11 13 14 13 13 14 15 17 17 18 18 18 16 16 16 16 15 15 15 16 17 19 19 17 12 14 17 18 19 20 19 17 20 19 21 20 18 17
17 17 15 14 13 13 14 14 14 15 16 20 20 20 20 16 16 16 14 15 14 14 14 13 13 11 15 19 17 14 15 14 16 17 18 18 17 15 19 22 23 24 22
17 16 16 13 14 14 14 15 15 17 18 18 18 13 15 14 16 15 14 13 12 12 12 11 9 6 3 7 8 12 12 13 15 16 16 17 15 15 15 17 18 20 22
20 18 16 15 15 14 15 16 18 18 18 17 14 13 14 14 14 13 12 10 8 7 7 5 0 2 7 8 8 8 9 9 12 13 14 16 17 15 15 14 15 16 18
22 20 18 17 17 15 16 16 16 16 16 16 14 14 14 13 12 11 9 8 5 5 3 3 5 5 6 6 7 7 8 8 10 11 11 13 16 15 14 14 15 16 16
21 20 19 19 18 17 16 15 16 17 17 15 15 14 12 11 10 8 8 5 4 4 4 3 4 4 4 4 4 5 7 7 7 7 8 11 13 15 12 12 14 15 15
21 20 20 19 19 19 16 16 16 16 15 15 14 13 11 10 9 8 7 6 5 4 4 4 4 4 3 3 3 3 4 5 6 6 7 7 10 13 14 12 11 12 14
21 21 21 20 19 19 16 17 16 16 15 15 13 12 12 10 9 8 7 5 5 4 5 5 4 4 3 3 3 3 4 3 4 4 4 6 9 11 11 11 11 11 12
22 22 22 21 21 21 18 17 16 16 17 15 14 13 12 11 10 7 6 6 5 4 3 4 3 4 3 3 3 2 2 3 3 3 3 4 3 6 11 10 10 10 12
22 23 22 21 22 22 20 18 16 17 17 15 13 13 14 12 11 8 7 6 6 4 4 3 3 3 3 3 3 2 2 2 1 1 2 2 3 3 4 5 5 6 8
24 24 24 23 23 23 20 18 17 17 17 16 15 14 15 14 12 9 7 7 6 5 4 4 4 3 3 3 3 3 2 1 0 0 0 1 2 2 2 2 3 5 5
25 25 25 25 25 25 22 21 20 19 18 16 15 14 16 15 14 11 9 9 7 6 5 6 5 4 3 3 3 5 3 2 2 2 2 2 1 0 1 1 1 3 2
28 27 27 27 27 27 23 22 19 18 18 18 16 17 17 16 15 13 11 10 9 7 8 8 7 4 2 3 4 5 3 7 5 3 2 2 1 1 1 1 1 2 4
29 30 29 29 29 29 24 22 19 18 18 18 19 18 19 18 17 16 14 11 11 10 10 9 8 6 3 3 4 4 3 4 2 7 4 2 2 2 2 2 1 2 4
31 30 30 29 29 29 27 25 24 22 21 21 21 20 19 20 19 18 16 14 13 11 10 10 9 7 5 4 2 2 2 4 3 1 6 5 3 3 2 2 1 2 4
31 31 31 30 30 29 30 26 26 23 21 20 20 20 20 20 20 19 18 16 14 13 11 10 9 8 6 5 4 2 2 3 3 4 5 7 5 6 4 3 2 3 3
30 30 31 32 31 31 32 30 28 26 23 21 21 21 22 21 21 21 19 18 16 14 13 11 10 9 7 5 4 4 3 4 4 5 5 6 4 4 4 4 3 3 4
Wind_Direction
120 135 136 127 118 118 115 112 111 114 109 108 100 99 101 100 94 95 93 90 86 84 81 79 77 73 72 71 69 69 72 72 64 64 65 57 58 58 56 57 58 57 54
119 132 133 123 119 115 113 113 116 118 109 103 101 103 105 101 93 94 93 91 87 82 78 75 72 69 67 65 68 73 77 74 72 67 62 56 54 54 54 53 53 52 52
122 132 127 125 119 118 114 114 115 110 109 105 100 99 106 103 102 101 97 94 87 83 80 77 76 74 72 72 74 74 69 58 69 62 57 55 51 50 50 51 52 51 51
129 134 132 129 124 120 116 115 113 112 110 109 109 102 105 106 109 107 105 100 93 88 85 82 78 75 75 77 79 78 73 66 59 66 59 59 58 57 57 57 56 57 58
140 134 131 128 130 125 119 117 115 116 115 108 107 115 105 111 116 112 110 101 96 91 88 84 80 78 77 77 76 75 68 74 81 63 57 52 55 53 58 57 57 57 58
138 120 130 133 132 126 122 120 118 114 110 114 119 111 104 110 114 113 110 102 95 92 89 86 83 78 73 71 72 72 60 56 66 66 61 53 49 50 51 56 64 64 61
128 122 134 135 133 124 125 123 124 122 120 121 126 114 110 114 117 119 111 104 99 96 91 86 82 77 71 69 73 77 67 56 64 62 59 55 52 54 54 50 63 69 68
124 135 136 132 132 127 128 123 131 127 129 130 132 120 119 118 124 120 112 107 103 100 95 91 85 80 75 73 78 81 71 70 67 65 61 55 55 57 55 60 56 66 68
138 132 137 130 132 135 133 132 136 137 142 141 136 129 128 125 127 121 113 110 107 103 99 94 89 85 80 79 82 81 73 74 71 66 59 57 52 59 54 59 57 60 64
138 134 138 139 133 130 131 139 139 140 140 135 134 130 132 128 128 123 112 113 111 106 102 97 92 90 82 80 75 70 82 71 67 66 58 53 50 57 60 64 60 60 63
130 147 148 150 142 139 137 143 141 143 137 133 126 121 120 126 125 115 128 120 116 110 105 98 82 85 87 77 66 57 63 70 70 66 60 52 59 57 58 61 58 58 61
151 156 153 156 150 147 141 140 140 138 134 139 136 153 131 135 131 132 127 127 118 110 104 96 78 69 93 53 56 57 66 77 73 70 66 50 52 70 59 58 57 53 54
163 159 163 154 156 154 146 147 145 148 144 150 151 149 136 135 134 133 130 123 119 122 107 107 358 50 41 37 53 55 67 76 81 73 64 58 47 58 70 57 55 56 54
167 163 171 164 162 161 157 157 156 155 155 155 158 150 147 147 151 151 149 133 150 110 98 54 68 71 67 65 64 61 57 62 89 89 65 61 53 48 57 64 62 54 53
171 170 168 166 165 164 165 158 160 162 161 159 157 161 161 155 155 155 145 144 111 107 84 74 89 88 83 79 70 71 71 71 73 92 81 62 55 55 60 60 62 66 58
171 172 169 169 167 167 169 163 164 167 166 162 166 168 167 161 161 152 152 138 121 93 76 76 80 88 73 83 89 78 71 74 72 70 110 88 62 70 65 69 66 61 57
172 172 172 171 169 169 165 167 169 171 172 170 173 171 175 171 168 158 148 146 126 107 97 93 86 80 78 85 93 103 100 91 92 80 68 108 102 78 81 74 69 65 55
172 175 174 173 172 171 169 170 173 173 175 175 174 176 178 176 171 175 164 154 145 135 124 99 80 71 75 83 93 101 105 108 100 90 71 50 41 109 84 88 81 69 55
171 173 175 175 174 174 172 175 178 175 182 181 182 184 185 184 180 185 175 161 154 146 136 119 92 84 92 81 92 86 90 101 129 87 74 57 47 20 83 95 106 93 56
169 175 176 176 177 177 176 181 182 182 187 187 189 191 187 189 188 188 180 171 169 162 151 138 120 98 90 94 91 82 60 52 274 296 300 327 32 26 47 86 181 110 40
171 175 178 178 179 180 182 186 185 185 192 195 195 188 187 191 190 190 190 183 183 179 168 155 146 136 124 142 167 170 184 192 219 271 297 304 348 125 81 55 13 35 95
175 178 180 183 183 186 188 191 192 192 193 195 198 191 192 192 193 196 196 192 191 177 174 173 175 174 164 212 305 304 220 178 196 201 260 263 277 256 187 144 32 16 354
180 183 184 186 186 189 191 192 192 192 194 197 198 195 198 196 197 200 198 198 193 190 191 190 195 208 215 211 255 313 307 9 353 166 183 216 260 249 249 211 315 356 354
187 188 188 188 189 192 192 193 194 195 193 198 195 197 197 200 201 200 200 201 199 202 200 199 204 214 237 213 195 241 285 316 321 207 188 197 214 243 230 264 271 317 347
190 190 192 191 192 194 195 198 196 204 202 196 198 197 197 198 202 201 202 201 202 205 204 202 196 205 219 255 226 199 240 268 258 280 309 158 200 215 226 244 289 308 328
190 191 194 195 196 197 197 202 199 203 204 198 200 199 198 197 201 204 203 203 203 204 202 201 200 204 203 217 217 202 230 275 301 272 273 282 293 192 215 233 252 297 318